TimeCST,TemperatureF,Dew PointF,Humidity,Sea Level PressureIn,VisibilityMPH,Wind Direction,Wind SpeedMPH,Gust SpeedMPH,PrecipitationIn,Events,Conditions,WindDirDegrees,DateUTC
12:52 AM,30.9,25.0,79,30.41,10.0,WNW,4.6,-,N/A,,Overcast,300,2013-01-04 06:52:00
1:52 AM,30.0,25.0,82,30.42,10.0,WNW,5.8,-,N/A,,Overcast,290,2013-01-04 07:52:00
2:52 AM,27.0,23.0,85,30.42,10.0,West,6.9,-,N/A,,Clear,280,2013-01-04 08:52:00
3:52 AM,26.1,23.0,88,30.42,10.0,West,5.8,-,N/A,,Clear,270,2013-01-04 09:52:00
4:52 AM,25.0,21.0,85,30.43,10.0,West,3.5,-,N/A,,Clear,280,2013-01-04 10:52:00
5:52 AM,19.9,18.0,92,30.43,10.0,Calm,Calm,-,N/A,,Clear,0,2013-01-04 11:52:00
6:52 AM,19.0,16.0,88,30.46,10.0,South,8.1,-,N/A,,Clear,180,2013-01-04 12:52:00
7:52 AM,21.0,18.0,88,30.46,9.0,SSW,6.9,-,N/A,,Clear,210,2013-01-04 13:52:00
8:52 AM,27.0,21.9,81,30.47,10.0,SW,6.9,-,N/A,,Clear,220,2013-01-04 14:52:00
9:52 AM,33.1,21.0,61,30.47,10.0,SW,8.1,-,N/A,,Clear,230,2013-01-04 15:52:00
10:52 AM,36.0,21.0,55,30.46,10.0,WSW,6.9,-,N/A,,Clear,240,2013-01-04 16:52:00
11:52 AM,39.0,21.0,49,30.44,10.0,WSW,11.5,-,N/A,,Clear,240,2013-01-04 17:52:00
12:52 PM,42.1,21.0,43,30.39,10.0,WSW,10.4,-,N/A,,Clear,250,2013-01-04 18:52:00
1:52 PM,45.0,21.0,39,30.37,10.0,West,9.2,-,N/A,,Clear,260,2013-01-04 19:52:00
2:52 PM,45.0,21.0,39,30.35,10.0,WSW,12.7,-,N/A,,Clear,240,2013-01-04 20:52:00
3:52 PM,44.1,21.0,40,30.35,10.0,SW,10.4,-,N/A,,Clear,220,2013-01-04 21:52:00
4:52 PM,39.0,21.9,50,30.36,10.0,SSW,8.1,-,N/A,,Clear,210,2013-01-04 22:52:00
5:52 PM,35.1,21.9,59,30.35,10.0,South,6.9,-,N/A,,Clear,180,2013-01-04 23:52:00
6:52 PM,30.0,21.0,69,30.37,10.0,South,8.1,-,N/A,,Clear,180,2013-01-05 00:52:00
7:52 PM,30.9,21.0,67,30.37,10.0,South,6.9,-,N/A,,Clear,180,2013-01-05 01:52:00
8:52 PM,28.9,19.9,69,30.36,10.0,South,6.9,-,N/A,,Clear,190,2013-01-05 02:52:00
9:52 PM,30.9,21.9,69,30.35,10.0,SSW,9.2,-,N/A,,Clear,200,2013-01-05 03:52:00
10:52 PM,30.0,21.9,72,30.34,10.0,SSW,10.4,-,N/A,,Clear,210,2013-01-05 04:52:00
11:52 PM,28.9,21.9,75,30.33,10.0,South,8.1,-,N/A,,Clear,190,2013-01-05 05:52:00